Stations météo

Publicité
Lechfeld, Allemagne (10856): Température de l'air & dewpoint: 10.01.2018 09:00:00 - 16.01.2018 09:00:00 (CET)Lechfeld, Allemagne (10856): Température de l'air -5cm: 10.01.2018 09:00:00 - 16.01.2018 09:00:00 (CET)Lechfeld, Allemagne (10856): Température de l'air -20cm & Température de l'air -100cm: 10.01.2018 09:00:00 - 16.01.2018 09:00:00 (CET)Lechfeld, Allemagne (10856): Vitesse du vent & gusts: 10.01.2018 09:00:00 - 16.01.2018 09:00:00 (CET)Lechfeld, Allemagne (10856): Direction du vent: 10.01.2018 09:00:00 - 16.01.2018 09:00:00 (CET)Lechfeld, Allemagne (10856): reduced air pressure: 10.01.2018 09:00:00 - 16.01.2018 09:00:00 (CET)Lechfeld, Allemagne (10856): visibility: 10.01.2018 09:00:00 - 16.01.2018 09:00:00 (CET)
Date & Time tt [°C] td [°C] tt -5cm [°C] tt -20cm [°C] tt -100cm [°C] ff [km/h] ff [knt] fx [km/h] fx [knt] dd ppp [hPa] vv [km]
16.01.2018 09:00:00 - - - - - - - - - - - -
16.01.2018 08:00:00 5,6 1,2 1,3 1,2 5,0 36 19 58 31 SSW 1000,7 30
16.01.2018 07:00:00 5,3 1,3 - - - 32 18 - - SW 1001,5 30
16.01.2018 06:00:00 5,3 1,1 - - - 32 18 58 31 SW 1002,5 30
16.01.2018 05:00:00 5,1 1,1 - - - 32 18 54 29 SW 1003,2 30
16.01.2018 04:00:00 4,6 1,2 - - - 32 18 - - SSW 1003,4 30
16.01.2018 03:00:00 4,4 1,0 - - - 22 12 - - SSW 1004,7 15
16.01.2018 02:00:00 4,0 -0,1 - - - 25 14 - - SSW 1005,2 10
16.01.2018 01:00:00 4,4 -0,8 - - - 22 12 - - SSW 1005,9 15
16.01.2018 00:00:00 4,1 -1,6 - - - 25 14 - - S 1006,9 15
15.01.2018 23:00:00 3,7 -0,5 - - - 14 8 - - SSW 1008,2 15
15.01.2018 22:00:00 3,8 -1,9 - - - 14 8 - - SSW 1009,3 15
15.01.2018 21:00:00 3,1 -3,1 - - - 11 6 - - S 1010,5 20
15.01.2018 20:00:00 1,2 -2,2 - - - 7 4 - - SW 1011,5 20
15.01.2018 19:00:00 1,6 -2,5 - - - 7 4 - - S 1011,7 20
15.01.2018 18:00:00 0,8 -1,8 - - - 7 4 - - SE 1013,0 20
15.01.2018 17:00:00 2,1 -1,8 - - - 11 6 - - SE 1013,8 20
15.01.2018 16:00:00 4,5 -1,6 - - - 4 2 - - ESE 1014,9 20
15.01.2018 15:00:00 5,0 -1,8 -0,2 1,3 - 4 2 - - SSE 1015,9 30
15.01.2018 14:00:00 5,8 -2,8 - - - 11 6 - - SSW 1016,5 30
15.01.2018 13:00:00 4,3 -1,7 - - - 7 4 - - SSE 1018,1 30
15.01.2018 12:00:00 1,4 -2,2 - - - 7 4 - - SSE 1020,2 15
15.01.2018 11:00:00 -0,1 -1,9 - - - 7 4 - - S 1021,8 8
15.01.2018 10:00:00 -2,0 -2,5 - - - 7 4 - - S 1022,8 6
15.01.2018 09:00:00 -3,4 -3,9 - - - 4 2 - - S 1023,5 6
15.01.2018 08:00:00 -3,0 -3,4 -0,6 1,5 5,1 7 4 - - S 1023,5 6
15.01.2018 07:00:00 -5,8 -6,5 - - - 7 4 - - S 1024,2 6
15.01.2018 06:00:00 -5,8 -6,3 - - - 7 4 - - S 1024,3 7
15.01.2018 05:00:00 -5,4 -5,9 - - - 4 2 - - S 1024,6 6
15.01.2018 04:00:00 -4,8 -5,2 - - - 4 2 - - SE 1024,8 7
15.01.2018 03:00:00 -4,4 -4,8 - - - 4 2 - - N 1025,0 6
15.01.2018 02:00:00 -6,1 -6,6 - - - 4 2 - - N 1025,8 2,5
15.01.2018 01:00:00 -6,4 -6,6 - - - 4 2 - - S 1026,1 2,0
15.01.2018 00:00:00 -5,1 -5,3 - - - 7 4 - - S 1026,1 5
14.01.2018 23:00:00 -4,4 -4,7 - - - 7 4 - - S 1025,8 5
14.01.2018 22:00:00 -3,9 -4,2 - - - 4 2 - - SSW 1025,5 6
14.01.2018 21:00:00 -2,9 -3,2 - - - 4 2 - - N 1025,0 8
14.01.2018 20:00:00 -2,0 -2,6 - - - 4 2 - - ENE 1024,5 12
14.01.2018 19:00:00 -2,2 -2,8 - - - 4 2 - - ENE 1024,3 15
14.01.2018 18:00:00 -1,2 -2,4 - - - 4 2 - - E 1023,7 10
14.01.2018 17:00:00 -1,8 -2,5 - - - 7 4 - - E 1023,6 15
14.01.2018 16:00:00 -1,2 -2,4 - - - 7 4 - - ENE 1023,1 15
14.01.2018 15:00:00 -0,1 -1,0 1,5 2,0 - 11 6 - - ENE 1022,5 8
14.01.2018 14:00:00 -0,2 -1,2 - - - 11 6 - - ENE 1022,5 6
14.01.2018 13:00:00 -0,2 -1,9 - - - 7 4 - - NE 1022,7 6
14.01.2018 12:00:00 -0,1 -1,9 - - - 7 4 - - NNE 1023,1 12
14.01.2018 11:00:00 -0,5 -2,0 - - - 7 4 - - NE 1023,6 13
14.01.2018 10:00:00 -0,6 -2,5 - - - 7 4 - - ENE 1023,4 20
14.01.2018 09:00:00 -0,8 -2,5 - - - 7 4 - - ENE 1023,0 25
14.01.2018 08:00:00 -0,8 -3,1 0,6 2,1 5,2 7 4 - - E 1022,8 21
14.01.2018 07:00:00 -0,9 -2,2 - - - 7 4 - - ENE 1022,5 19
14.01.2018 06:00:00 -0,9 -2,0 - - - 11 6 - - NE 1022,4 14
14.01.2018 05:00:00 -0,9 -2,0 - - - 11 6 - - NE 1022,4 14
14.01.2018 04:00:00 -0,7 -1,9 - - - 11 6 - - NE 1022,5 14
14.01.2018 03:00:00 -0,6 -2,1 - - - 14 8 - - ENE 1022,8 18
14.01.2018 02:00:00 -0,4 -2,3 - - - 14 8 - - ENE 1022,6 20
14.01.2018 01:00:00 -0,4 -1,9 - - - 11 6 - - ENE 1023,0 20
14.01.2018 00:00:00 -0,3 -2,0 - - - 14 8 - - ENE 1023,4 21
13.01.2018 23:00:00 -0,2 -1,5 - - - 14 8 - - ENE 1023,6 15
13.01.2018 22:00:00 -0,1 -1,4 - - - 14 8 - - ENE 1023,7 14
13.01.2018 21:00:00 0,0 -1,2 - - - 18 10 - - ENE 1023,9 14
13.01.2018 20:00:00 0,2 -0,9 - - - 22 12 - - ENE 1023,9 11
13.01.2018 19:00:00 0,6 -0,7 - - - 18 10 - - ENE 1024,1 12
13.01.2018 18:00:00 1,1 -0,5 - - - 14 8 - - ENE 1024,1 15
13.01.2018 17:00:00 1,4 -0,4 - - - 18 10 - - ENE 1023,8 19
13.01.2018 16:00:00 1,6 -0,2 - - - 18 10 - - ENE 1024,0 19
13.01.2018 15:00:00 2,0 0,2 2,4 2,8 - 18 10 - - NE 1023,7 19
13.01.2018 14:00:00 2,1 0,4 - - - 18 10 - - NE 1023,8 15
13.01.2018 13:00:00 2,3 0,1 - - - 11 6 - - E 1024,1 18
13.01.2018 12:00:00 2,1 -0,1 - - - 14 8 - - E 1024,7 20
13.01.2018 11:00:00 2,1 0,0 - - - 14 8 - - ENE 1025,4 21
13.01.2018 10:00:00 2,0 0,2 - - - 14 8 - - ENE 1025,4 18
13.01.2018 09:00:00 1,9 0,4 - - - 14 8 - - ENE 1025,4 10
13.01.2018 08:00:00 1,9 0,0 1,8 2,8 5,3 18 10 - - ENE 1025,5 16
13.01.2018 07:00:00 1,7 0,3 - - - 11 6 - - ENE 1025,7 10
13.01.2018 06:00:00 1,6 0,4 - - - 11 6 - - NE 1025,8 10
13.01.2018 05:00:00 1,6 0,0 - - - 11 6 - - NE 1026,0 15
13.01.2018 04:00:00 1,8 -0,4 - - - 18 10 - - ENE 1026,2 15
13.01.2018 03:00:00 1,8 -0,2 - - - 14 8 - - ENE 1026,6 15
13.01.2018 02:00:00 1,8 -0,2 - - - 18 10 - - ENE 1026,5 15
13.01.2018 01:00:00 1,8 0,0 - - - 14 8 - - ENE 1026,7 15
13.01.2018 00:00:00 1,7 0,1 - - - 11 6 - - NE 1027,1 10
12.01.2018 23:00:00 1,9 0,2 - - - 11 6 - - ENE 1027,3 10
12.01.2018 22:00:00 2,0 0,2 - - - 14 8 - - ENE 1027,3 12
12.01.2018 21:00:00 2,1 -0,1 - - - 18 10 - - ENE 1027,1 10
12.01.2018 20:00:00 2,2 -0,1 - - - 14 8 - - ENE 1026,9 8
12.01.2018 19:00:00 2,1 0,9 - - - 11 6 - - NE 1026,8 8
12.01.2018 18:00:00 2,2 0,9 - - - 14 8 - - NNE 1026,5 10
12.01.2018 17:00:00 2,6 0,6 - - - 7 4 - - N 1026,3 10
12.01.2018 16:00:00 3,1 0,7 - - - 11 6 - - NNE 1025,7 10
12.01.2018 15:00:00 3,1 0,6 4,2 2,9 - 7 4 - - NE 1025,5 9
12.01.2018 14:00:00 3,1 0,7 - - - 7 4 - - NE 1025,1 8
12.01.2018 13:00:00 2,5 0,4 - - - 11 6 - - ENE 1025,5 8
12.01.2018 12:00:00 2,0 0,5 - - - 11 6 - - E 1025,9 8
12.01.2018 11:00:00 1,5 0,2 - - - 11 6 - - E 1026,1 8
12.01.2018 10:00:00 1,1 0,3 - - - 11 6 - - E 1025,7 8
12.01.2018 09:00:00 0,9 0,5 - - - 4 2 - - NE 1025,5 6
12.01.2018 08:00:00 0,7 0,3 1,7 2,7 5,4 4 2 - - N 1025,1 6
12.01.2018 07:00:00 0,5 0,2 - - - 7 4 - - ESE 1024,7 6
12.01.2018 06:00:00 0,5 0,3 - - - 11 6 - - E 1024,2 2,5
12.01.2018 05:00:00 0,4 0,2 - - - 11 6 - - E 1024,0 2,5
12.01.2018 04:00:00 0,6 0,4 - - - 11 6 - - NE 1023,9 2,0
12.01.2018 03:00:00 0,8 0,6 - - - 7 4 - - NE 1023,4 2,0
12.01.2018 02:00:00 1,1 0,9 - - - 11 6 - - NE 1022,9 2,0
12.01.2018 01:00:00 1,3 1,1 - - - 7 4 - - ENE 1022,4 1,5
12.01.2018 00:00:00 1,5 1,3 - - - 11 6 - - ENE 1022,0 2,0
11.01.2018 23:00:00 1,3 1,2 - - - 11 6 - - ENE 1021,7 1,5
11.01.2018 22:00:00 0,9 0,8 - - - 7 4 - - E 1021,5 1,2
11.01.2018 21:00:00 1,1 0,9 - - - 7 4 - - ENE 1021,1 0,6
11.01.2018 20:00:00 1,2 1,0 - - - 7 4 - - NE 1020,5 0,6
11.01.2018 19:00:00 1,4 1,1 - - - 8 4 - - E 1019,9 1,5
11.01.2018 18:00:00 1,8 1,3 - - - 7 4 - - NNE 1019,3 3,0
11.01.2018 17:00:00 2,2 1,3 - - - 5 3 - - N 1018,5 5
11.01.2018 16:00:00 2,6 1,5 - - - 7 4 - - NNE 1017,8 5
11.01.2018 15:00:00 2,7 1,7 2,9 2,3 - 11 6 - - N 1017,2 4,5
11.01.2018 14:00:00 2,8 1,5 - - - 11 6 - - N 1016,6 8
11.01.2018 13:00:00 2,7 1,2 - - - 11 6 - - NE 1016,2 8
11.01.2018 12:00:00 2,7 0,9 - - - 7 4 - - NNE 1016,2 8
11.01.2018 11:00:00 1,4 0,6 - - - 4 2 - - NE 1016,6 6
11.01.2018 10:00:00 0,4 0,1 - - - 4 2 - - N 1016,5 6
11.01.2018 09:00:00 -1,6 -1,8 - - - 4 2 - - N 1016,8 6
11.01.2018 08:00:00 -2,4 -2,7 0,6 2,5 5,5 4 2 - - NW 1016,6 8
11.01.2018 07:00:00 -2,1 -2,3 - - - 0 0 - - N 1016,1 8
11.01.2018 06:00:00 -3,4 -3,7 - - - 7 4 - - S 1016,0 10
11.01.2018 05:00:00 -1,7 -1,9 - - - 7 4 - - S 1015,2 10
11.01.2018 04:00:00 -1,3 -1,4 - - - 4 2 - - SE 1015,3 10
11.01.2018 03:00:00 -1,4 -1,6 - - - 4 2 - - SSE 1015,1 10
11.01.2018 02:00:00 -0,2 -0,4 - - - 7 4 - - SSW 1014,4 10
11.01.2018 01:00:00 -1,5 -1,8 - - - 7 4 - - S 1015,0 10
11.01.2018 00:00:00 -0,6 -0,7 - - - 7 4 - - SSW 1014,8 10
10.01.2018 23:00:00 -1,7 -2,2 - - - 7 4 - - S 1015,3 10
10.01.2018 22:00:00 -0,8 -1,1 - - - 7 4 - - S 1014,7 15
10.01.2018 21:00:00 -0,7 -0,9 - - - 7 4 - - SSW 1014,8 15
10.01.2018 20:00:00 -0,1 -0,4 - - - 7 4 - - S 1014,6 20
10.01.2018 19:00:00 0,6 0,3 - - - 4 2 - - ENE 1014,3 20
10.01.2018 18:00:00 2,3 1,6 - - - 4 2 - - NE 1013,7 20
10.01.2018 17:00:00 4,0 1,8 - - - 2 1 - - N 1013,1 10
10.01.2018 16:00:00 7,2 2,5 - - - 4 2 - - N 1011,9 30
10.01.2018 15:00:00 8,3 3,0 6,4 3,1 - 4 2 - - NW 1011,6 20
10.01.2018 14:00:00 7,9 2,7 - - - 7 4 - - NNE 1011,7 20
10.01.2018 13:00:00 7,7 1,8 - - - 4 2 - - W 1012,5 20
10.01.2018 12:00:00 5,8 1,8 - - - 7 4 - - N 1013,9 20
10.01.2018 11:00:00 3,9 2,0 - - - 11 6 - - S 1015,3 20
10.01.2018 10:00:00 2,3 1,1 - - - 11 6 - - S 1015,8 30
10.01.2018 09:00:00 -1,2 -1,8 - - - 7 4 - - S 1016,6 30

tt = Température de l'air
td = dewpoint
tt -5cm = Température de l'air -5cm
tt -20cm = Température de l'air -20cm
tt -100cm = Température de l'air -100cm
ff = Vitesse du vent
fx = gusts
dd = Direction du vent
ppp = reduced air pressure
vv = visibility

stations d'obs. à proximité